Weather History for PAFE - October, 2012

Change the Weather History Date:

Thursday, October 25, 2012

  Actual Average Record
Temperature  
Mean Temperature 36 °F -  
Max Temperature 39 °F 43 °F 53 °F (2003)
Min Temperature 33 °F 36 °F 30 °F (2000)
Degree Days  
Heating Degree Days 29    
Moisture  
Dew Point 18 °F    
Average Humidity 50    
Maximum Humidity 56    
Minimum Humidity 39    
Precipitation  
Precipitation 0.00 in - - ()
Sea Level Pressure  
Sea Level Pressure 30.39 in    
Wind  
Wind Speed 8 mph (NE)    
Max Wind Speed 13 mph    
Max Gust Speed 21 mph    
Visibility 10 miles    
Events      
Averages and records for this station are not official NWS values.
T = Trace of Precipitation, MM = Missing Value Source: NWS Daily Summary

Daily Weather History Graph

Daily Weather History Graph

Search for Another Location

Airport or City:

Trip Planner

Search our weather history database for the weather conditions in past years. The results will help you decide how hot, cold, wet, or windy it might be!

Date:

Astronomy

Oct. 25, 2012 Rise Set
Actual Time 7:51 AM AKDT 5:26 PM AKDT
Civil Twilight 7:12 AM AKDT 6:06 PM AKDT
Nautical Twilight 6:27 AM AKDT 6:50 PM AKDT
Astronomical Twilight 5:43 AM AKDT 7:34 PM AKDT
Moon 3:50 PM AKDT (10/25) 3:15 AM AKDT (10/25)
Length of Visible Light 10h 54m
Length of Day
9h 34m
Waxing Gibbous, 85% of the Moon is Illuminated
Oct 25
Waxing Gibbous
Oct 29
Full
Nov 6
Last Quarter
Nov 13
New
Nov 20
First Quarter

Hourly Weather History & Observations

Time (AKDT) Temp. Windchill Dew Point Humidity Pressure Visibility Wind Dir Wind Speed Gust Speed Precip Events Conditions
12:16 AM 33.8 °F 27.7 °F 19.4 °F 56% 30.36 in 10.0 mi NE 6.9 mph - N/A   Mostly Cloudy
12:36 AM 35.6 °F 28.6 °F 21.2 °F 56% 30.37 in 10.0 mi NE 9.2 mph - N/A   Partly Cloudy
12:56 AM 35.6 °F 29.2 °F 19.4 °F 52% 30.37 in 10.0 mi NE 8.1 mph - N/A   Clear
1:16 AM 33.8 °F 27.7 °F 19.4 °F 56% 30.38 in 10.0 mi NNE 6.9 mph - N/A   Clear
1:36 AM 33.8 °F 27.7 °F 19.4 °F 56% 30.39 in 10.0 mi NE 6.9 mph - N/A   Clear
1:56 AM 33.8 °F 27.0 °F 19.4 °F 56% 30.39 in 10.0 mi NE 8.1 mph - N/A   Clear
2:16 AM 33.8 °F 27.0 °F 19.4 °F 56% 30.39 in 10.0 mi NNE 8.1 mph - N/A   Clear
2:36 AM 33.8 °F 27.0 °F 19.4 °F 56% 30.40 in 10.0 mi NNE 8.1 mph - N/A   Clear
2:56 AM 33.8 °F 27.7 °F 19.4 °F 56% 30.40 in 10.0 mi NNE 6.9 mph - N/A   Clear
3:16 AM 33.8 °F 27.7 °F 19.4 °F 56% 30.40 in 10.0 mi NNE 6.9 mph - N/A   Clear
3:36 AM 33.8 °F 27.0 °F 19.4 °F 56% 30.40 in 10.0 mi NE 8.1 mph - N/A   Clear
3:56 AM 33.8 °F 27.0 °F 19.4 °F 56% 30.40 in 10.0 mi NE 8.1 mph - N/A   Clear
4:16 AM 33.8 °F 27.7 °F 19.4 °F 56% 30.40 in 10.0 mi NE 6.9 mph - N/A   Clear
4:36 AM 33.8 °F 27.7 °F 19.4 °F 56% 30.40 in 10.0 mi NE 6.9 mph - N/A   Clear
4:56 AM 33.8 °F 26.4 °F 19.4 °F 56% 30.40 in 10.0 mi NE 9.2 mph - N/A   Clear
5:16 AM 33.8 °F 27.0 °F 19.4 °F 56% 30.40 in 10.0 mi NE 8.1 mph - N/A   Clear
5:36 AM 33.8 °F 25.8 °F 19.4 °F 56% 30.40 in 10.0 mi NE 10.4 mph - N/A   Clear
5:56 AM 33.8 °F 25.3 °F 17.6 °F 52% 30.40 in 10.0 mi NE 11.5 mph - N/A   Clear
6:16 AM 33.8 °F 26.4 °F 17.6 °F 52% 30.40 in 10.0 mi NE 9.2 mph - N/A   Clear
6:36 AM 33.8 °F 27.0 °F 17.6 °F 52% 30.40 in 10.0 mi NE 8.1 mph - N/A   Clear
6:56 AM 33.8 °F 27.0 °F 17.6 °F 52% 30.40 in 10.0 mi NE 8.1 mph - N/A   Clear
7:16 AM 33.8 °F 27.0 °F 17.6 °F 52% 30.40 in 10.0 mi NNE 8.1 mph - N/A   Clear
7:36 AM 33.8 °F 26.4 °F 17.6 °F 52% 30.40 in 10.0 mi NE 9.2 mph - N/A   Clear
7:56 AM 33.8 °F 27.0 °F 17.6 °F 52% 30.40 in 10.0 mi NE 8.1 mph - N/A   Clear
8:16 AM 33.8 °F 27.0 °F 17.6 °F 52% 30.39 in 10.0 mi NE 8.1 mph 17.3 mph N/A   Clear
8:36 AM 33.8 °F 25.8 °F 19.4 °F 56% 30.39 in 10.0 mi NE 10.4 mph 16.1 mph N/A   Clear
8:56 AM 35.6 °F 28.0 °F 19.4 °F 52% 30.39 in 10.0 mi ENE 10.4 mph - N/A   Clear
9:16 AM 35.6 °F 29.2 °F 19.4 °F 52% 30.40 in 10.0 mi NE 8.1 mph 18.4 mph N/A   Clear
9:36 AM 35.6 °F 29.9 °F 19.4 °F 52% 30.40 in 10.0 mi ENE 6.9 mph - N/A   Clear
9:56 AM 37.4 °F 32.1 °F 19.4 °F 48% 30.40 in 10.0 mi NE 6.9 mph - N/A   Clear
10:16 AM 37.4 °F 29.8 °F 19.4 °F 48% 30.41 in 10.0 mi NE 11.5 mph 16.1 mph N/A   Clear
10:36 AM 37.4 °F 31.4 °F 19.4 °F 48% 30.41 in 10.0 mi NE 8.1 mph 17.3 mph N/A   Clear
10:56 AM 37.4 °F 29.3 °F 19.4 °F 48% 30.42 in 10.0 mi NE 12.7 mph 19.6 mph N/A   Clear
11:16 AM 39.2 °F 34.2 °F 19.4 °F 45% 30.42 in 10.0 mi NNE 6.9 mph - N/A   Clear
11:36 AM 39.2 °F 33.6 °F 17.6 °F 42% 30.42 in 10.0 mi North 8.1 mph - N/A   Clear
12:16 PM 39.2 °F 33.0 °F 17.6 °F 42% 30.42 in 10.0 mi NE 9.2 mph 19.6 mph N/A   Clear
12:36 PM 39.2 °F 31.6 °F 17.6 °F 42% 30.41 in 10.0 mi NE 12.7 mph 20.7 mph N/A   Clear
12:56 PM 39.2 °F 32.5 °F 15.8 °F 39% 30.42 in 10.0 mi NNE 10.4 mph 19.6 mph N/A   Clear
1:16 PM 39.2 °F 34.2 °F 17.6 °F 42% 30.42 in 10.0 mi NNE 6.9 mph 18.4 mph N/A   Clear
1:36 PM 39.2 °F 32.5 °F 17.6 °F 42% 30.42 in 10.0 mi NE 10.4 mph 16.1 mph N/A   Clear
1:56 PM 39.2 °F 33.0 °F 15.8 °F 39% 30.41 in 10.0 mi NE 9.2 mph 17.3 mph N/A   Clear
2:16 PM 39.2 °F 33.0 °F 15.8 °F 39% 30.41 in 10.0 mi NNE 9.2 mph 17.3 mph N/A   Clear
2:36 PM 39.2 °F 34.2 °F 15.8 °F 39% 30.41 in 10.0 mi NNE 6.9 mph 19.6 mph N/A   Clear
2:56 PM 39.2 °F 33.0 °F 15.8 °F 39% 30.41 in 10.0 mi NNE 9.2 mph 19.6 mph N/A   Clear
3:16 PM 39.2 °F 35.0 °F 15.8 °F 39% 30.40 in 10.0 mi NE 5.8 mph 18.4 mph N/A   Clear
3:36 PM 39.2 °F 34.2 °F 15.8 °F 39% 30.40 in 10.0 mi NE 6.9 mph - N/A   Clear
3:56 PM 39.2 °F 33.6 °F 15.8 °F 39% 30.40 in 10.0 mi NNE 8.1 mph - N/A   Clear
4:16 PM 39.2 °F 34.2 °F 15.8 °F 39% 30.40 in 10.0 mi NNE 6.9 mph - N/A   Clear
4:36 PM 37.4 °F 33.8 °F 15.8 °F 41% 30.40 in 10.0 mi NE 4.6 mph - N/A   Clear
4:56 PM 37.4 °F 32.1 °F 15.8 °F 41% 30.40 in 10.0 mi NE 6.9 mph - N/A   Clear
5:16 PM 37.4 °F 31.4 °F 15.8 °F 41% 30.40 in 10.0 mi NE 8.1 mph - N/A   Clear
5:36 PM 35.6 °F 28.6 °F 15.8 °F 44% 30.40 in 10.0 mi NE 9.2 mph - N/A   Clear
5:56 PM 35.6 °F 28.0 °F 17.6 °F 48% 30.39 in 10.0 mi NE 10.4 mph - N/A   Clear
6:16 PM 35.6 °F 28.6 °F 15.8 °F 44% 30.39 in 10.0 mi NE 9.2 mph - N/A   Clear
6:36 PM 35.6 °F 28.6 °F 15.8 °F 44% 30.39 in 10.0 mi NE 9.2 mph - N/A   Clear
6:56 PM 35.6 °F 28.6 °F 17.6 °F 48% 30.38 in 10.0 mi NE 9.2 mph - N/A   Clear
7:16 PM 33.8 °F 26.4 °F 17.6 °F 52% 30.38 in 10.0 mi NE 9.2 mph - N/A   Clear
7:56 PM 33.8 °F 27.0 °F 17.6 °F 52% 30.37 in 10.0 mi NE 8.1 mph - N/A   Clear
8:16 PM 33.8 °F 27.7 °F 19.4 °F 56% 30.36 in 10.0 mi NE 6.9 mph - N/A   Clear
8:36 PM 33.8 °F 28.6 °F 19.4 °F 56% 30.36 in 10.0 mi NE 5.8 mph - N/A   Clear
8:56 PM 33.8 °F 27.7 °F 19.4 °F 56% 30.36 in 10.0 mi NE 6.9 mph - N/A   Clear
9:16 PM 33.8 °F 27.0 °F 19.4 °F 56% 30.36 in 10.0 mi NE 8.1 mph - N/A   Clear
9:36 PM 33.8 °F 28.6 °F 19.4 °F 56% 30.36 in 10.0 mi NE 5.8 mph - N/A   Clear
9:56 PM 33.8 °F 27.0 °F 19.4 °F 56% 30.36 in 10.0 mi NE 8.1 mph - N/A   Clear
10:16 PM 33.8 °F 27.7 °F 19.4 °F 56% 30.36 in 10.0 mi NE 6.9 mph - N/A   Clear
10:36 PM 33.8 °F 27.0 °F 19.4 °F 56% 30.36 in 10.0 mi NE 8.1 mph - N/A   Clear
10:56 PM 33.8 °F 26.4 °F 19.4 °F 56% 30.36 in 10.0 mi NE 9.2 mph - N/A   Clear
11:16 PM 33.8 °F 25.8 °F 19.4 °F 56% 30.36 in 10.0 mi NE 10.4 mph 17.3 mph N/A   Clear
11:36 PM 33.8 °F 25.8 °F 19.4 °F 56% 30.36 in 10.0 mi NE 10.4 mph 16.1 mph N/A   Clear
11:56 PM 33.8 °F 26.4 °F 17.6 °F 52% 30.36 in 10.0 mi NE 9.2 mph - N/A   Clear